Regional Weather Roundup
Issued by NWS

Home | Current Version | Previous Version | Graphics & Text | Print | Product List | Glossary On
Versions: 1 2 3 4 5 6 7 8 9 10 11 12 13 14 15 16 17 18 19 20 21 22 23 24 25 26 27 28 29 30 31 32 33 34 35 36 37 38 39 40 41 42 43 44 45 46 47 48 49 50
000
ASUS45 KCYS 210910
RWRWY

WYOMING REGIONAL WEATHER ROUNDUP
NATIONAL WEATHER SERVICE CHEYENNE WY
300 AM MDT SUN SEP 21 2014

NOTE:  "FAIR" INDICATES FEW OR NO CLOUDS BELOW 12,000 FEET
WITH NO SIGNIFICANT WEATHER AND/OR OBSTRUCTIONS TO VISIBILITY.

WYZ001-211000-
YELLOWSTONE NATIONAL PARK

CITY           SKY/WX    TMP DP  RH WIND       PRES   REMARKS
LK YELLOWSTONE   N/A     35  33  92 NW3       30.44S
W YELLOWSTONE  NOT AVBL

$$
WYZ002>013-054>058-071-098>099-211000-
NORTHERN WYOMING

CITY           SKY/WX    TMP DP  RH WIND       PRES   REMARKS
JACKSON        CLEAR     54  41  62 N12       30.33S
CODY             N/A    N/A N/A N/A MISG        N/A
GREYBULL       CLEAR     51  42  71 SE5       30.28S
WORLAND        CLEAR     48  41  76 CALM      30.28S
SHERIDAN       CLEAR     45  40  82 NW6       30.30F
BUFFALO        CLEAR     52  37  56 SW5       30.35F
GILLETTE       CLEAR     39  35  86 CALM      30.33F
HULETT         FAIR      45  34  65 MISG      30.35
NEWCASTLE      FAIR      45  34  65 N6        30.34

$$
WYZ014>020-022>026-101>103-211000-
CENTRAL WYOMING

CITY           SKY/WX    TMP DP  RH WIND       PRES   REMARKS
BIG PINEY      PTCLDY    46  35  65 CALM      30.37S
PINEDALE       MOSUNNY   37  34  87 W5        30.38S WCI  34
DUBOIS         FAIR      45  36  70 CALM      30.43F
LANDER         CLEAR     53  39  59 W6        30.34S
RIVERTON       CLEAR     54  36  50 NE9       30.34F
CASPER         CLEAR     44  32  62 CALM      30.35F
DOUGLAS        MOCLDY    47  38  71 SE5       30.37S

$$
WYZ021-027>030-104>119-211000-
SOUTHERN WYOMING

CITY           SKY/WX    TMP DP  RH WIND       PRES   REMARKS
EVANSTON       PTCLDY    56  32  40 E8        30.30R
KEMMERER       SUNNY     52  36  54 N13       30.35S
FORT BRIDGER   FAIR      50  37  61 NE5       30.33S
ROCK SPRINGS   CLEAR     51  37  58 NE12      30.32F
DIXON          FAIR      51  40  66 NE7       30.30S
RAWLINS        CLEAR     51  36  56 NE15      30.35F
SARATOGA       FAIR      45  39  81 SW6       30.36S
LARAMIE        CLEAR     46  36  68 S7        30.43S
CHEYENNE       CLOUDY    56  38  50 SE7       30.41S
TORRINGTON     CLOUDY    54  42  64 NW3       30.33S
PINE BLUFFS    PTSUNNY   54  39  58 CALM      30.37S

$$


USA.gov is the U.S. government's official web portal to all federal, state and local government web resources and services.